Location: Gazon
(48.1318°N, 1.2708°W)
Time: 23:13:51
(UTC+00:00)

ATLAS 2AS CENTAUR R/B - Pass Details

Date: 18 September 2020
Orbit: 939 x 1273 km, 63.7° (Epoch: 19 October)

Event Time Altitude Azimuth Distance (km) Brightness Sun altitude
Rises 21:00:48 0° 203° (SSW) 4,185 5.7 -27.2°
Reaches altitude 10° 21:03:36 10° 200° (SSW) 3,241 5.0 -27.6°
Enters shadow 21:04:48 15° 198° (SSW) 2,851 4.7 -27.7°
Exits shadow 21:11:56 60° 103° (ESE) 1,436 3.0 -28.6°
Drops below altitude 10° 21:19:06 10° 45° (NE) 3,233 5.2 -29.5°
Sets 21:21:53 0° 42° (NE) 4,176 5.8 -29.9°
